Regional Weather Roundup
Issued by NWS Goodland, KS

Home | Current Version | Previous Version | Graphics & Text | Print | Product List | Glossary Off
Versions: 1 2 3 4 5 6 7 8 9 10 11 12 13 14 15 16 17 18 19 20 21 22 23 24 25 26 27 28 29 30 31 32 33 34 35 36 37 38 39 40 41 42 43 44 45 46 47 48 49 50

000
ASUS43 KGLD 271459
RWRGLD

GOODLAND FORECAST AREA HOURLY WEATHER ROUNDUP
NATIONAL WEATHER SERVICE GOODLAND KS
900 AM MDT SAT AUG 27 2016

...OFFICIAL OBSERVATIONS...

CITY           SKY/WX    TMP DP  RH WIND       PRES   REMARKS
GOODLAND KS    FOG       59  58  96 NE6       30.09R VSB 1/2
HILL CITY KS   SUNNY     67  61  81 N3        30.07S
IMPERIAL NEB   PTSUNNY   60  56  86 S6        30.09F
MCCOOK NEB     SUNNY     63  58  83 S6        30.07F
AKRON CO       SUNNY     61  51  70 NW7       30.12R
BURLINGTON CO  FOG       58  55  90 N8        30.11R VSB 1/4
LIMON CO       MOSUNNY   68  49  50 W5        30.14S
$$

...UNOFFICIAL OBSERVATIONS...

CITY           SKY/WX    TMP DP  RH WIND       PRES   REMARKS
LENORA KS        N/A     64  32  30 MISG        N/A
NORTON KS      SUNNY     64  55  72 CALM      30.05F
SHARON SPRINGS   N/A     60  59  96 CALM        N/A
TRENTON NEB      N/A     59  32  36 MISG        N/A
KIT CARSON CO    N/A     63  56  78 CALM        N/A
YUMA CO          N/A     53  52  97 CALM        N/A
$$



USA.gov is the U.S. government's official web portal to all federal, state and local government web resources and services.